TimeCDT,TemperatureF,Dew PointF,Humidity,Sea Level PressureIn,VisibilityMPH,Wind Direction,Wind SpeedMPH,Gust SpeedMPH,PrecipitationIn,Events,Conditions,WindDirDegrees,DateUTC
12:53 AM,42.1,37.9,85,30.17,10.0,East,4.6,-,N/A,,Overcast,80,2013-10-30 05:53:00
1:50 AM,39.2,35.6,87,30.14,10.0,NE,6.9,-,N/A,,Mostly Cloudy,40,2013-10-30 06:50:00
1:53 AM,37.9,36.0,93,30.17,10.0,NE,6.9,-,N/A,,Mostly Cloudy,50,2013-10-30 06:53:00
2:53 AM,39.0,37.0,93,30.16,10.0,Calm,Calm,-,N/A,,Mostly Cloudy,0,2013-10-30 07:53:00
3:53 AM,37.9,36.0,93,30.14,9.0,Calm,Calm,-,N/A,,Overcast,0,2013-10-30 08:53:00
4:01 AM,37.9,36.0,93,30.12,9.0,North,4.6,-,N/A,,Overcast,10,2013-10-30 09:01:00
4:10 AM,37.9,37.0,97,30.12,8.0,NNE,4.6,-,N/A,,Overcast,20,2013-10-30 09:10:00
4:53 AM,39.0,37.9,96,30.13,7.0,North,3.5,-,N/A,,Overcast,360,2013-10-30 09:53:00
5:53 AM,41.0,39.9,96,30.14,7.0,Calm,Calm,-,N/A,,Overcast,0,2013-10-30 10:53:00
6:53 AM,43.0,39.9,89,30.13,7.0,NNE,4.6,-,N/A,,Overcast,30,2013-10-30 11:53:00
7:00 AM,43.0,41.0,93,30.11,7.0,ENE,3.5,-,N/A,,Overcast,60,2013-10-30 12:00:00
7:53 AM,44.1,42.1,93,30.12,4.0,East,3.5,-,N/A,,Overcast,90,2013-10-30 12:53:00
8:53 AM,45.0,42.1,90,30.13,5.0,Calm,Calm,-,N/A,,Overcast,0,2013-10-30 13:53:00
9:53 AM,46.9,43.0,86,30.10,4.0,Variable,3.5,-,N/A,,Overcast,0,2013-10-30 14:53:00
10:53 AM,50.0,44.1,80,30.10,4.0,SSE,4.6,-,N/A,,Haze,160,2013-10-30 15:53:00
11:40 AM,52.0,45.0,77,30.06,4.0,Variable,3.5,-,N/A,,Haze,0,2013-10-30 16:40:00
11:53 AM,53.1,46.0,77,30.07,4.0,SSE,5.8,-,N/A,,Haze,150,2013-10-30 16:53:00
12:19 PM,54.0,46.9,77,30.05,4.0,SSE,6.9,-,N/A,,Haze,160,2013-10-30 17:19:00
12:53 PM,55.0,48.0,77,30.05,4.0,SE,6.9,-,N/A,,Haze,140,2013-10-30 17:53:00
1:53 PM,57.0,48.9,74,30.02,5.0,South,10.4,-,N/A,,Haze,180,2013-10-30 18:53:00
2:53 PM,55.9,48.0,75,30.00,4.0,South,8.1,-,N/A,,Haze,170,2013-10-30 19:53:00
3:53 PM,54.0,48.0,80,29.96,3.0,SE,12.7,-,N/A,,Haze,140,2013-10-30 20:53:00
4:07 PM,54.0,48.0,80,29.94,2.5,SE,11.5,-,N/A,,Haze,140,2013-10-30 21:07:00
4:14 PM,53.1,48.0,83,29.93,2.5,SSE,11.5,-,N/A,,Haze,150,2013-10-30 21:14:00
4:53 PM,53.1,48.9,86,29.94,2.5,SE,13.8,-,N/A,,Overcast,130,2013-10-30 21:53:00
5:37 PM,52.0,48.9,89,29.88,3.0,SE,12.7,-,N/A,,Overcast,140,2013-10-30 22:37:00
5:53 PM,52.0,48.9,89,29.90,3.0,SE,13.8,-,N/A,,Overcast,130,2013-10-30 22:53:00
6:53 PM,52.0,50.0,93,29.90,2.5,SSE,9.2,-,0.00,Rain,Light Rain,160,2013-10-30 23:53:00
7:53 PM,52.0,51.1,97,29.88,1.8,South,9.2,-,0.02,,Overcast,180,2013-10-31 00:53:00
8:12 PM,52.0,51.1,97,29.85,1.0,South,9.2,-,N/A,,Overcast,170,2013-10-31 01:12:00
8:53 PM,52.0,52.0,100,29.84,0.8,South,6.9,-,N/A,,Overcast,170,2013-10-31 01:53:00
9:20 PM,53.1,53.1,100,29.81,1.0,South,5.8,-,N/A,,Overcast,170,2013-10-31 02:20:00
9:53 PM,53.1,53.1,100,29.81,1.0,South,4.6,-,N/A,,Overcast,180,2013-10-31 02:53:00
10:37 PM,53.1,53.1,100,29.78,0.8,South,5.8,-,N/A,,Overcast,180,2013-10-31 03:37:00
10:53 PM,53.1,53.1,100,29.77,0.8,South,6.9,-,N/A,,Overcast,170,2013-10-31 03:53:00
11:40 PM,53.1,53.1,100,29.75,0.2,South,8.1,-,N/A,Fog,Fog,170,2013-10-31 04:40:00
11:53 PM,53.1,53.1,100,29.75,0.2,South,8.1,-,N/A,Fog,Fog,170,2013-10-31 04:53:00